Location: Sternwarte_Laufen
(47.9344°N, 12.9346°E)
Time: 09:56:56
(UTC+02:00)

ISS - Pass Details

Date: 19 May 2018
Orbit: 402 x 407 km, 51.6° (Epoch: 27 May)

Event Time Altitude Azimuth Distance (km) Brightness Sun altitude
Exits shadow 02:29:57 10° 290° (WNW) 1,478 -1.0 -19.7°
Reaches altitude 10° 02:30:00 10° 290° (WNW) 1,459 -1.0 -19.7°
Maximum altitude 02:33:08 41° 3° (N) 597 -2.5 -19.5°
Drops below altitude 10° 02:36:15 10° 76° (ENE) 1,458 -0.5 -19.3°
Sets 02:38:25 0° 84° (E) 2,318 0.4 -19.2°
